Overview Statistics Trail Chart Weather Telemetry Raw packets
 

This is the latest recevied weather packets stored in our database for station/object OE3TEC-15. If no packets are shown the sender has not sent any weather packets the latest 10 day(s).

<< 18 19 20 21 22 23 24 >>
Time Temp. Humidity Pressure Rain* Wind** Luminosity Snow
1787869760 20° C 69% 1017.5 hPa 0 mm - 0 W/m² -
1787869156 17.78° C 79% 1017.6 hPa 0 mm - 0 W/m² -
1787868521 17.22° C 83% 1017.7 hPa 0 mm - 0 W/m² -
1787867293 16.67° C 85% 1017.9 hPa 0 mm - 0 W/m² -
1787866685 17.22° C 84% 1018.1 hPa 0 mm - 0 W/m² -
1787866049 17.22° C 83% 1018.1 hPa 0 mm - 0 W/m² -
1787864823 17.22° C 82% 1017.9 hPa 0 mm - 0 W/m² -
1787864223 17.22° C 84% 1018.1 hPa 0 mm - 0 W/m² -
1787863616 17.22° C 82% 1017.9 hPa 0 mm - 0 W/m² -
1787859282 18.89° C 78% 1017.9 hPa 0 mm - 0 W/m² -
1787858040 19.44° C 76% 1017.8 hPa 0 mm - 0 W/m² -
1787856215 20° C 74% 1017.8 hPa 0 mm - 0 W/m² -
1787854993 21.67° C 69% 1017.5 hPa 0 mm - 0 W/m² -
1787853130 24.44° C 56% 1017.4 hPa 0 mm - 1 W/m² -
1787852513 25.56° C 53% 1017.4 hPa 0 mm - 4 W/m² -
1787848233 28.33° C 47% 1017.7 hPa 0 mm - 39 W/m² -
1787847621 28.33° C 46% 1017.6 hPa 0 mm - 66 W/m² -
1787845745 28.33° C 46% 1017.6 hPa 0 mm - 112 W/m² -
1787844505 28.33° C 45% 1017.8 hPa 0 mm - 99 W/m² -
1787843883 28.89° C 45% 1017.8 hPa 0 mm - 159 W/m² -
1787841465 28.89° C 44% 1018 hPa 0 mm - 286 W/m² -
1787840217 29.44° C 44% 1017.7 hPa 0 mm - 331 W/m² -
1787839613 29.44° C 44% 1017.7 hPa 0 mm - 348 W/m² -
1787838977 29.44° C 44% 1017.9 hPa 0 mm - 402 W/m² -
1787835272 27.78° C 47% 1018.1 hPa 0 mm - 262 W/m² -

* Rain latest hour (hover to see other rain measurements)
** Current wind speed in m/s (hover to see current wind gust speed)